TimeCST,TemperatureF,Dew PointF,Humidity,Sea Level PressureIn,VisibilityMPH,Wind Direction,Wind SpeedMPH,Gust SpeedMPH,PrecipitationIn,Events,Conditions,WindDirDegrees,DateUTC
12:15 AM,33.8,28.4,81,29.94,10.0,NNW,10.4,-,N/A,,Unknown,330,2012-12-24 06:15:00
12:35 AM,33.8,28.4,81,29.94,10.0,NNW,11.5,-,N/A,,Unknown,330,2012-12-24 06:35:00
12:55 AM,33.8,28.4,81,29.95,10.0,NNW,15.0,-,N/A,,Unknown,330,2012-12-24 06:55:00
1:15 AM,33.8,26.6,75,29.95,10.0,NNW,13.8,-,N/A,,Unknown,330,2012-12-24 07:15:00
1:35 AM,33.8,26.6,75,29.95,10.0,NNW,15.0,20.7,N/A,,Unknown,330,2012-12-24 07:35:00
1:55 AM,32.0,26.6,80,29.95,10.0,NNW,13.8,20.7,N/A,,Unknown,340,2012-12-24 07:55:00
2:15 AM,32.0,26.6,80,29.95,10.0,NNW,13.8,-,N/A,,Unknown,340,2012-12-24 08:15:00
2:35 AM,32.0,26.6,80,29.96,10.0,NNW,8.1,-,N/A,,Unknown,340,2012-12-24 08:35:00
2:55 AM,32.0,26.6,80,29.98,10.0,NNW,6.9,-,N/A,,Unknown,340,2012-12-24 08:55:00
3:15 AM,32.0,26.6,80,30.00,10.0,North,5.8,-,N/A,,Unknown,350,2012-12-24 09:15:00
3:35 AM,32.0,26.6,80,30.00,10.0,North,9.2,16.1,N/A,,Unknown,360,2012-12-24 09:35:00
3:55 AM,30.2,24.8,80,29.99,10.0,North,10.4,-,N/A,,Unknown,360,2012-12-24 09:55:00
4:15 AM,30.2,24.8,80,29.97,10.0,North,12.7,17.3,N/A,,Unknown,360,2012-12-24 10:15:00
4:35 AM,30.2,24.8,80,29.97,10.0,North,11.5,18.4,N/A,,Unknown,360,2012-12-24 10:35:00
4:55 AM,30.2,24.8,80,29.99,10.0,North,8.1,-,N/A,,Unknown,350,2012-12-24 10:55:00
5:15 AM,28.4,23.0,80,30.00,10.0,NNW,8.1,-,N/A,,Unknown,340,2012-12-24 11:15:00
5:35 AM,28.4,23.0,80,29.99,10.0,North,9.2,-,N/A,,Unknown,10,2012-12-24 11:35:00
10:55 AM,39.2,24.8,56,30.02,10.0,ENE,6.9,-,N/A,,Clear,60,2012-12-24 16:55:00
11:55 AM,44.6,24.8,46,30.00,10.0,Calm,Calm,-,N/A,,Clear,0,2012-12-24 17:55:00
10:35 PM,35.6,28.4,75,29.87,10.0,NNE,6.9,-,N/A,,Unknown,20,2012-12-25 04:35:00
10:55 PM,35.6,28.4,75,29.87,10.0,NE,6.9,-,N/A,,Unknown,50,2012-12-25 04:55:00
11:15 PM,35.6,28.4,75,29.87,10.0,NNE,8.1,-,N/A,,Unknown,30,2012-12-25 05:15:00
11:35 PM,35.6,28.4,75,29.87,10.0,NNE,5.8,-,N/A,,Unknown,20,2012-12-25 05:35:00
11:55 PM,35.6,28.4,75,29.86,10.0,NE,8.1,-,N/A,,Unknown,40,2012-12-25 05:55:00